Wind_Speed
16 16 16 16 16 15 14 13 12 11 9 8 7 7 7 6 5 6 6 6 7 7 7 7 7 7 8 8 9 9 9 8 8 8 9 9 10 12 13 14 14 14 14
17 18 17 18 18 17 16 16 15 13 12 11 9 9 9 9 8 7 7 7 7 8 8 9 9 10 10 10 11 11 12 11 11 11 10 11 11 12 14 15 16 16 16
17 18 18 19 20 19 19 18 18 16 15 14 12 11 12 12 11 10 9 9 9 9 9 10 10 11 12 12 13 14 14 15 15 15 15 14 14 13 14 15 16 18 18
17 17 18 19 20 21 21 20 20 19 18 17 16 15 14 14 14 13 12 11 11 11 11 12 12 13 13 14 15 16 17 18 18 19 19 19 18 17 17 16 16 18 20
19 19 19 20 21 22 22 21 22 21 21 20 19 18 17 16 15 15 15 14 14 14 14 14 15 15 15 16 16 17 18 19 20 21 22 22 22 21 20 19 18 18 20
22 22 21 21 21 22 22 22 22 23 23 23 22 21 20 19 17 17 17 17 17 16 16 16 17 17 18 18 18 19 19 20 21 22 23 23 24 24 23 22 22 21 20
24 24 23 22 22 22 22 23 23 24 25 24 24 23 23 23 22 20 19 19 19 19 19 18 19 19 19 19 19 20 21 21 22 22 23 24 25 25 25 25 24 23 23
27 25 25 24 23 22 22 23 24 24 26 26 26 26 25 25 25 23 22 21 20 21 22 21 21 21 21 21 21 22 22 23 23 23 24 25 25 26 26 26 25 25 25
30 28 27 25 24 23 23 23 24 25 26 27 28 28 27 27 27 26 25 24 22 22 23 23 23 23 23 24 23 23 23 24 24 24 25 25 25 25 26 25 25 25 25
31 30 29 28 27 25 24 23 23 25 27 28 28 29 29 29 29 28 27 26 25 24 23 23 23 24 25 26 25 24 24 24 24 25 25 26 26 26 26 25 25 25 26
31 32 31 29 29 28 26 25 24 26 28 29 30 31 31 31 30 30 29 28 27 26 24 24 23 24 25 26 26 26 25 25 25 25 25 26 26 26 26 26 26 26 26
32 32 31 31 30 28 26 25 25 25 27 30 31 32 32 32 32 31 30 30 28 28 26 26 25 24 24 25 26 27 26 26 26 26 26 26 27 27 27 27 27 27 26
34 34 33 32 30 27 26 26 27 27 28 29 30 32 34 33 32 31 31 30 29 28 27 27 26 25 24 25 26 27 27 26 26 26 26 27 27 27 27 28 28 28 28
35 34 34 33 32 31 29 28 28 27 28 30 30 31 33 32 31 31 30 29 28 27 27 27 26 26 25 25 25 26 27 26 26 26 27 27 28 28 28 29 29 29 29
35 34 34 33 31 30 29 28 29 29 29 29 31 30 29 30 30 30 28 27 27 27 27 26 26 25 25 25 25 26 26 26 26 26 27 27 28 28 29 29 30 30 30
32 32 31 30 30 29 29 29 29 29 29 28 29 27 27 28 29 27 26 26 26 26 26 25 24 24 24 25 25 25 26 26 26 26 27 28 28 28 29 29 30 30 31
26 25 25 25 25 25 25 26 28 28 27 27 27 27 28 27 26 25 26 25 24 24 25 25 24 24 24 24 25 25 25 25 25 25 26 27 27 28 28 29 29 30 30
17 16 17 18 20 19 19 21 22 22 23 22 23 23 24 24 24 24 24 23 23 23 24 24 24 24 24 24 24 24 25 24 25 25 25 26 27 28 28 28 29 29 29
9 9 10 11 12 13 14 15 15 16 17 18 19 20 21 21 22 22 23 23 23 23 23 24 24 24 23 23 23 23 23 23 24 24 25 26 26 26 26 27 28 29 29
4 5 6 7 8 9 11 12 13 14 15 16 18 19 20 20 21 22 22 23 23 23 23 23 24 24 23 23 23 23 22 22 23 23 23 24 25 26 26 27 27 28 28
5 6 7 8 9 11 13 14 15 16 17 18 19 19 20 20 21 22 22 22 22 22 23 23 23 23 22 22 23 22 22 22 22 22 22 23 25 26 26 27 28 27 27
7 9 10 11 12 14 15 16 17 19 20 20 21 21 22 22 23 23 22 22 22 22 22 22 22 22 22 21 21 21 21 21 21 21 22 23 24 25 26 27 27 27 27
9 10 11 12 14 15 17 18 20 20 21 22 22 22 22 22 23 23 22 22 22 21 21 22 22 21 21 20 20 20 20 20 20 19 19 20 21 23 23 25 26 27 27
10 11 12 13 14 16 18 19 20 21 22 22 22 23 22 22 23 23 22 22 21 21 20 20 20 20 19 19 19 19 18 18 18 18 18 18 19 20 20 22 24 25 26
11 12 12 13 14 15 16 18 20 20 21 21 22 22 23 23 22 22 21 20 20 19 19 19 18 18 17 17 17 17 17 17 17 16 16 16 16 17 18 19 21 22 23
13 13 12 13 13 14 15 16 17 18 18 18 18 19 19 20 19 19 19 19 18 17 17 16 16 16 16 15 14 14 15 15 15 15 15 15 16 16 17 17 18 20 21
Wind_Direction
282 281 281 281 280 278 280 284 286 287 289 293 297 296 296 296 288 272 262 257 256 259 261 262 261 261 267 268 268 268 267 268 267 264 258 256 253 250 248 246 245 246 247
280 279 277 275 274 273 273 275 278 280 281 283 286 288 287 285 284 281 275 269 267 268 269 268 266 262 262 265 266 267 265 265 266 266 266 264 262 257 253 251 248 246 246
276 276 275 274 273 272 271 272 274 275 274 273 274 277 277 278 279 278 278 279 280 278 275 274 272 268 266 265 264 265 264 263 262 263 263 264 265 263 260 256 251 248 247
274 272 271 271 271 272 270 270 270 271 270 269 268 269 268 272 276 276 277 280 283 282 279 278 275 273 271 270 268 266 265 264 263 262 261 261 262 264 263 261 257 252 249
273 272 270 268 267 266 266 267 267 267 267 267 268 267 264 266 271 274 276 280 282 281 279 278 277 277 276 274 272 269 268 266 264 263 262 260 260 260 260 260 258 257 252
271 272 271 269 268 266 265 265 266 264 264 265 265 264 263 264 266 268 274 279 280 281 280 279 279 279 278 277 275 273 271 270 267 265 264 262 260 259 258 257 256 256 254
267 268 268 269 268 267 265 266 266 264 261 261 262 261 262 264 265 265 269 274 278 281 281 281 281 282 281 279 278 276 275 273 270 268 266 263 261 259 258 256 255 254 253
264 263 264 265 265 266 268 267 267 266 261 260 259 259 259 261 264 266 266 267 272 277 279 281 282 282 281 279 278 278 276 274 271 269 267 264 262 259 258 256 255 253 252
265 261 258 263 263 263 267 269 267 266 264 262 260 257 256 257 260 263 266 266 266 268 273 277 280 281 280 279 279 279 277 275 272 270 268 265 262 258 256 256 254 253 251
266 263 258 259 262 262 265 269 270 266 264 263 260 256 254 255 258 261 264 266 267 267 270 272 275 277 279 280 280 279 277 275 272 270 267 264 261 257 255 254 254 252 250
270 267 264 263 264 264 264 268 270 269 265 262 258 255 252 251 254 257 260 263 265 268 269 269 271 273 274 276 277 278 277 274 271 269 266 262 260 256 254 252 252 251 250
273 272 275 271 268 266 267 269 269 270 266 263 261 253 250 250 251 254 257 260 262 265 268 270 271 271 270 271 273 276 277 274 271 268 264 261 258 256 253 251 250 250 250
275 274 276 274 272 269 267 268 268 268 265 263 260 254 249 248 249 251 253 256 259 262 264 267 269 271 269 269 271 273 274 273 269 266 264 260 256 255 253 251 250 249 249
271 271 270 270 270 270 267 266 266 265 263 260 258 255 250 247 247 248 249 252 255 258 260 262 266 268 269 271 271 273 273 271 268 265 263 258 255 255 253 251 250 249 249
270 270 267 266 266 266 265 264 264 262 259 257 257 253 248 245 245 245 247 251 254 256 258 260 263 266 268 270 271 272 271 270 267 264 261 257 255 255 253 252 251 250 250
272 270 267 266 265 264 262 262 262 260 259 256 250 245 243 244 244 245 248 252 255 256 258 260 262 263 266 268 270 271 271 269 267 263 259 257 256 255 255 253 252 251 251
270 268 264 263 263 261 261 259 258 256 253 250 247 245 244 244 243 247 251 253 255 257 257 260 261 262 264 266 267 271 272 270 266 264 259 258 256 256 256 255 254 253 251
266 265 261 258 260 255 254 253 250 249 249 249 249 248 248 248 247 249 251 254 256 256 257 260 262 264 265 266 268 270 270 269 266 262 259 258 257 256 255 255 256 254 253
263 257 255 253 251 249 247 248 249 247 248 248 248 249 249 250 251 252 254 255 256 258 259 261 263 265 265 266 267 269 270 268 266 262 259 257 257 255 255 256 257 255 254
259 256 261 258 256 257 258 257 256 258 255 253 253 253 252 252 253 255 256 257 258 260 261 262 263 264 265 266 267 268 268 266 264 262 259 256 256 256 256 256 256 257 257
303 293 282 274 268 267 266 264 264 263 264 264 262 260 258 257 257 258 258 259 260 261 262 262 263 264 265 266 267 267 267 268 265 261 258 256 256 255 256 255 255 256 258
303 291 285 281 278 277 273 271 269 268 267 267 266 264 260 258 258 259 260 260 261 262 262 263 264 265 266 266 267 267 267 267 266 264 262 259 257 256 258 257 254 255 257
314 303 296 290 287 283 278 276 275 274 271 268 266 265 262 259 258 259 259 260 262 264 264 264 265 265 265 266 267 268 267 266 265 266 264 262 260 258 259 258 254 254 255
328 318 309 302 296 291 284 280 276 276 274 271 268 267 264 261 259 260 259 259 261 262 263 264 264 265 265 266 267 267 266 266 266 265 267 267 264 261 263 263 259 258 258
342 332 323 317 310 304 297 289 283 281 278 274 270 267 264 262 259 257 257 258 259 261 262 263 264 264 264 266 266 266 266 265 266 267 268 271 268 267 266 266 263 263 265
2 352 342 335 328 319 311 303 296 289 283 276 272 267 264 261 257 254 254 255 255 256 257 259 260 260 261 263 265 266 266 265 267 267 266 269 268 271 270 271 270 270 269
Height
5906 5905 5905 5904 5904 5904 5903 5903 5903 5903 5903 5903 5902 5902 5901 5901 5901 5901 5900 5900 5901 5901 5901 5902 5902 5902 5903 5903 5904 5904 5904 5905 5905 5905 5906 5906 5907 5907 5908 5908 5909 5910 5911
5903 5902 5901 5901 5901 5901 5901 5900 5900 5900 5900 5900 5900 5900 5899 5899 5899 5899 5899 5899 5899 5899 5899 5899 5900 5900 5900 5901 5901 5902 5902 5903 5903 5903 5904 5904 5904 5905 5905 5906 5906 5907 5908
5900 5899 5898 5897 5897 5896 5897 5897 5896 5896 5897 5897 5898 5898 5897 5897 5897 5897 5896 5896 5896 5897 5897 5897 5897 5897 5898 5898 5898 5899 5899 5900 5900 5900 5901 5901 5902 5902 5902 5903 5903 5904 5905
5896 5895 5894 5894 5893 5892 5892 5892 5892 5892 5893 5893 5894 5895 5895 5894 5894 5894 5894 5894 5894 5894 5894 5894 5894 5894 5895 5895 5895 5895 5896 5896 5896 5896 5897 5897 5898 5898 5899 5899 5900 5900 5901
5890 5890 5890 5889 5889 5888 5888 5888 5888 5888 5888 5889 5890 5890 5891 5891 5891 5890 5890 5890 5891 5891 5891 5891 5891 5891 5891 5891 5891 5891 5891 5892 5892 5892 5892 5893 5893 5894 5894 5895 5896 5896 5897
5885 5885 5884 5884 5883 5883 5883 5883 5883 5883 5884 5884 5885 5885 5886 5886 5887 5887 5886 5886 5886 5887 5887 5887 5887 5887 5887 5887 5887 5887 5887 5887 5887 5887 5887 5887 5888 5888 5889 5890 5891 5891 5892
5879 5878 5878 5878 5878 5877 5877 5877 5878 5878 5878 5879 5880 5880 5880 5881 5882 5883 5883 5882 5882 5882 5882 5883 5883 5882 5882 5882 5882 5882 5882 5882 5882 5882 5882 5882 5882 5883 5884 5885 5885 5886 5887
5871 5871 5871 5871 5871 5871 5871 5871 5871 5871 5872 5873 5874 5875 5875 5876 5876 5877 5877 5878 5878 5877 5877 5877 5878 5877 5877 5877 5876 5876 5876 5876 5876 5876 5876 5876 5876 5877 5878 5879 5880 5881 5882
5862 5863 5863 5863 5864 5864 5865 5865 5865 5865 5865 5866 5867 5868 5869 5869 5870 5871 5871 5872 5873 5873 5873 5872 5872 5872 5871 5871 5871 5871 5871 5870 5870 5870 5870 5870 5870 5871 5871 5872 5874 5875 5876
5852 5853 5854 5855 5856 5856 5857 5857 5858 5858 5858 5859 5860 5861 5862 5863 5864 5865 5865 5865 5866 5867 5867 5868 5867 5866 5865 5865 5864 5865 5865 5864 5864 5864 5864 5864 5864 5865 5865 5866 5867 5869 5870
5843 5844 5845 5846 5847 5848 5848 5849 5850 5850 5850 5851 5852 5853 5854 5855 5856 5858 5858 5859 5860 5860 5861 5862 5862 5862 5860 5859 5858 5858 5858 5858 5858 5857 5857 5858 5858 5859 5860 5860 5861 5863 5864
5836 5835 5835 5837 5838 5839 5840 5840 5841 5842 5842 5843 5843 5845 5846 5847 5849 5851 5852 5852 5853 5854 5854 5854 5855 5855 5855 5854 5852 5852 5852 5852 5851 5851 5851 5851 5852 5852 5853 5854 5855 5857 5858
5829 5828 5828 5828 5829 5830 5831 5832 5833 5833 5833 5834 5835 5836 5838 5839 5841 5843 5845 5845 5846 5847 5848 5847 5847 5848 5848 5847 5846 5846 5845 5845 5845 5844 5844 5845 5845 5846 5847 5848 5849 5850 5852
5821 5820 5821 5821 5822 5823 5823 5824 5824 5824 5825 5826 5826 5828 5829 5831 5833 5835 5837 5838 5839 5840 5841 5841 5840 5841 5841 5840 5840 5839 5838 5838 5838 5838 5838 5838 5839 5839 5840 5841 5843 5844 5845
5812 5811 5812 5813 5813 5814 5814 5815 5816 5816 5817 5817 5818 5820 5821 5823 5825 5826 5828 5830 5832 5833 5833 5833 5834 5834 5834 5834 5833 5832 5831 5831 5831 5831 5831 5831 5832 5833 5833 5834 5836 5837 5838
5803 5803 5803 5804 5805 5805 5806 5807 5807 5807 5808 5809 5810 5811 5813 5815 5817 5819 5821 5823 5824 5825 5825 5826 5827 5827 5827 5827 5826 5826 5825 5824 5824 5824 5824 5825 5826 5826 5827 5828 5829 5830 5831
5796 5796 5796 5797 5797 5798 5798 5799 5800 5800 5801 5801 5803 5804 5806 5808 5810 5811 5813 5815 5817 5818 5818 5819 5820 5820 5820 5820 5820 5819 5819 5818 5817 5817 5818 5818 5819 5820 5820 5821 5822 5823 5824
5790 5790 5790 5791 5791 5791 5792 5793 5793 5793 5794 5795 5797 5798 5800 5801 5803 5804 5806 5808 5809 5811 5811 5812 5813 5813 5814 5814 5813 5813 5812 5811 5811 5810 5811 5811 5812 5813 5814 5815 5816 5817 5818
5787 5787 5787 5787 5787 5787 5788 5788 5788 5789 5789 5790 5791 5793 5794 5795 5796 5798 5800 5801 5802 5803 5804 5805 5806 5806 5807 5807 5806 5806 5806 5805 5804 5804 5804 5805 5805 5806 5807 5808 5809 5810 5811
5785 5785 5784 5784 5784 5784 5784 5784 5784 5785 5785 5786 5787 5787 5788 5789 5790 5792 5793 5794 5796 5797 5797 5798 5799 5799 5800 5800 5799 5799 5799 5799 5798 5798 5798 5798 5799 5800 5801 5801 5803 5804 5804
5783 5783 5782 5782 5782 5781 5781 5781 5781 5781 5781 5781 5782 5782 5783 5784 5785 5786 5787 5788 5789 5790 5791 5791 5792 5793 5793 5793 5793 5793 5793 5793 5792 5792 5792 5792 5793 5793 5794 5795 5796 5797 5797
5782 5781 5780 5779 5779 5778 5777 5777 5777 5776 5776 5776 5776 5777 5777 5778 5779 5779 5780 5781 5783 5783 5784 5785 5786 5786 5787 5787 5787 5787 5787 5787 5787 5787 5786 5786 5786 5787 5787 5788 5788 5789 5790
5780 5778 5777 5776 5775 5774 5773 5772 5771 5771 5770 5770 5770 5770 5771 5771 5772 5773 5774 5775 5776 5777 5778 5779 5780 5780 5781 5781 5781 5781 5781 5781 5781 5781 5781 5780 5780 5781 5781 5781 5782 5783 5783
5778 5776 5774 5772 5771 5769 5767 5766 5765 5764 5763 5763 5763 5763 5764 5765 5765 5767 5768 5769 5770 5771 5772 5773 5774 5775 5775 5776 5776 5776 5776 5776 5776 5776 5776 5775 5775 5775 5775 5775 5775 5776 5776
5776 5773 5771 5769 5767 5764 5762 5760 5759 5757 5756 5756 5756 5756 5757 5758 5759 5760 5762 5763 5765 5766 5767 5768 5769 5770 5770 5771 5771 5771 5771 5771 5771 5771 5771 5771 5770 5770 5770 5770 5769 5770 5770
5775 5772 5769 5766 5763 5760 5758 5755 5753 5751 5750 5750 5750 5750 5750 5751 5753 5754 5756 5758 5760 5761 5762 5763 5764 5765 5766 5766 5766 5767 5766 5766 5766 5766 5766 5766 5766 5766 5765 5765 5764 5764 5764